Tracking 29892 objects as of 21-Nov-2024
HD Live streaming from Space Station
objects crossing your sky now

STARLINK-30365

Track STARLINK-30365 now!
10-day predictions
STARLINK-30365 is classified as:


NORAD ID: 57734
Int'l Code: 2023-131C
Perigee: 565.6 km
Apogee: 566.7 km
Inclination: 43.0 °
Period: 95.8 minutes
Semi major axis: 6937 km
RCS: Unknown
Launch date: September 1, 2023
Source: United States (US)
Launch site: AIR FORCE EASTERN TEST RANGE (AFETR)
Your satellite tracking list
Your tracking list is empty




NASA's NSSDC Master Catalog

Two Line Element Set (TLE):
1 57734U 23131C   24325.77147487 -.00001246  00000-0 -77153-4 0  9999
2 57734  43.0009 226.9793 0000771 262.6816  97.3939 15.02549213 68633
Source of the keplerian elements: AFSPC